When you browse on this site, cookies collect data to enhance your experience and personalize the content and advertising you see.
Visit our Privacy Policy to learn more. By continuing to use the site, you agree to this use of cookies and data.
  • In United Kingdom
  • List of Countries
  • For 7 days
  • Water Temperature
  • Weather Map
  • Weather Widgets
  • user-avatar
    Login

    Hourly Weather Bremen

    Today, 24 August, Saturday

    Time Temperature Precipitation Wind Pressure Humidity
    00:00 +17°C° 0 mm 2 mps 767 mmHg 89%
    01:00 +16°C° 0 mm 2 mps 767 mmHg 89%
    02:00 +16°C° 0 mm 2 mps 767 mmHg 87%
    03:00 +16°C° 0 mm 2 mps 767 mmHg 85%
    04:00 +16°C° 0 mm 2 mps 767 mmHg 83%
    05:00 +16°C° 0 mm 2 mps 767 mmHg 82%
    06:00 +17°C° 0 mm 2 mps 767 mmHg 80%
    07:00 +17°C° 0 mm 2 mps 766 mmHg 79%
    08:00 +20°C° 0 mm 2 mps 767 mmHg 72%
    09:00 +22°C° 0 mm 3 mps 767 mmHg 66%
    10:00 +25°C° 0 mm 3 mps 767 mmHg 60%
    11:00 +26°C° 0 mm 3 mps 766 mmHg 55%
    12:00 +27°C° 0 mm 3 mps 766 mmHg 51%
    13:00 +29°C° 0 mm 3 mps 766 mmHg 46%
    14:00 +29°C° 0 mm 3 mps 766 mmHg 47%
    15:00 +29°C° 0 mm 3 mps 765 mmHg 47%
    16:00 +29°C° 0 mm 3 mps 765 mmHg 48%
    17:00 +27°C° 0 mm 3 mps 765 mmHg 54%
    18:00 +25°C° 0 mm 3 mps 765 mmHg 61%
    19:00 +24°C° 0 mm 2 mps 764 mmHg 68%
    20:00 +22°C° 0 mm 3 mps 765 mmHg 70%
    21:00 +21°C° 0 mm 3 mps 765 mmHg 72%
    22:00 +20°C° 0 mm 3 mps 765 mmHg 73%
    23:00 +19°C° 0 mm 3 mps 765 mmHg 75%

    Tomorrow, 25 August, Sunday

    Time Temperature Precipitation Wind Pressure Humidity
    00:00 +19°C° 0 mm 3 mps 765 mmHg 77%
    01:00 +18°C° 0 mm 3 mps 765 mmHg 79%
    02:00 +18°C° 0 mm 3 mps 764 mmHg 81%
    03:00 +18°C° 0 mm 3 mps 764 mmHg 82%
    04:00 +17°C° 0 mm 3 mps 764 mmHg 83%
    05:00 +18°C° 0 mm 3 mps 764 mmHg 83%
    06:00 +18°C° 0 mm 3 mps 764 mmHg 82%
    07:00 +19°C° 0 mm 3 mps 764 mmHg 81%
    08:00 +21°C° 0 mm 3 mps 764 mmHg 75%
    09:00 +24°C° 0 mm 3 mps 764 mmHg 70%
    10:00 +26°C° 0 mm 3 mps 764 mmHg 64%
    11:00 +27°C° 0 mm 3 mps 764 mmHg 61%
    12:00 +28°C° 0 mm 3 mps 764 mmHg 59%
    13:00 +29°C° 0 mm 3 mps 763 mmHg 56%
    14:00 +30°C° 0 mm 2 mps 763 mmHg 56%
    15:00 +30°C° 0 mm 2 mps 763 mmHg 56%
    16:00 +30°C° 0 mm 2 mps 763 mmHg 56%
    17:00 +29°C° 0.4 mm 2 mps 763 mmHg 62%
    18:00 +27°C° 0.4 mm 2 mps 763 mmHg 69%
    19:00 +26°C° 0.4 mm 2 mps 763 mmHg 76%
    20:00 +25°C° 0.8 mm 2 mps 763 mmHg 80%
    21:00 +23°C° 0.8 mm 2 mps 763 mmHg 84%
    22:00 +21°C° 0.8 mm 2 mps 764 mmHg 87%
    23:00 +21°C° 1.1 mm 2 mps 764 mmHg 88%

    Day after tomorrow, 26 August, Monday

    Time Temperature Precipitation Wind Pressure Humidity
    00:00 +21°C° 1.1 mm 2 mps 763 mmHg 89%
    01:00 +20°C° 1.1 mm 2 mps 763 mmHg 90%
    02:00 +20°C° 0.4 mm 2 mps 763 mmHg 90%
    03:00 +20°C° 0.4 mm 2 mps 763 mmHg 90%
    04:00 +20°C° 0.4 mm 2 mps 763 mmHg 90%
    05:00 +20°C° 0 mm 2 mps 763 mmHg 88%
    06:00 +20°C° 0 mm 2 mps 763 mmHg 87%
    07:00 +20°C° 0 mm 2 mps 763 mmHg 86%
    08:00 +23°C° 0 mm 2 mps 763 mmHg 81%
    09:00 +25°C° 0 mm 3 mps 763 mmHg 76%
    10:00 +27°C° 0 mm 3 mps 763 mmHg 71%
    11:00 +28°C° 0 mm 3 mps 763 mmHg 66%
    12:00 +29°C° 0 mm 3 mps 763 mmHg 61%
    13:00 +30°C° 0 mm 3 mps 763 mmHg 56%
    14:00 +31°C° 0 mm 3 mps 763 mmHg 55%
    15:00 +31°C° 0 mm 2 mps 762 mmHg 54%
    16:00 +31°C° 0 mm 2 mps 762 mmHg 53%
    17:00 +30°C° 0 mm 2 mps 762 mmHg 59%
    18:00 +28°C° 0 mm 2 mps 762 mmHg 66%
    19:00 +27°C° 0 mm 2 mps 762 mmHg 72%
    20:00 +26°C° 0 mm 2 mps 762 mmHg 75%
    21:00 +25°C° 0 mm 3 mps 762 mmHg 78%
    22:00 +24°C° 0 mm 3 mps 762 mmHg 80%
    23:00 +22°C° 0 mm 3 mps 762 mmHg 82%

    27 August, Tuesday

    Time Temperature Precipitation Wind Pressure Humidity
    00:00 +22°C° 0 mm 3 mps 762 mmHg 83%
    01:00 +21°C° 0 mm 3 mps 762 mmHg 84%
    02:00 +21°C° 0 mm 3 mps 761 mmHg 86%
    03:00 +21°C° 0 mm 3 mps 761 mmHg 88%
    04:00 +20°C° 0 mm 3 mps 761 mmHg 90%
    05:00 +21°C° 0 mm 3 mps 761 mmHg 88%
    06:00 +21°C° 0 mm 3 mps 761 mmHg 87%
    07:00 +22°C° 0 mm 3 mps 761 mmHg 85%
    08:00 +25°C° 0 mm 3 mps 761 mmHg 79%
    09:00 +27°C° 0 mm 4 mps 761 mmHg 74%
    10:00 +28°C° 0 mm 4 mps 761 mmHg 68%
    11:00 +30°C° 0 mm 4 mps 761 mmHg 63%
    12:00 +32°C° 0 mm 4 mps 761 mmHg 58%
    13:00 +33°C° 0 mm 4 mps 760 mmHg 52%
    14:00 +33°C° 0 mm 4 mps 760 mmHg 52%
    15:00 +33°C° 0 mm 3 mps 760 mmHg 51%
    16:00 +34°C° 0 mm 3 mps 759 mmHg 51%
    17:00 +31°C° 0 mm 3 mps 759 mmHg 57%
    18:00 +29°C° 0 mm 2 mps 759 mmHg 62%
    19:00 +28°C° 0 mm 2 mps 759 mmHg 68%
    20:00 +27°C° 0.1 mm 2 mps 759 mmHg 69%
    21:00 +26°C° 0.1 mm 2 mps 759 mmHg 70%
    22:00 +25°C° 0.1 mm 2 mps 759 mmHg 71%
    23:00 +25°C° 0 mm 1 mps 759 mmHg 74%

    28 August, Wednesday

    Time Temperature Precipitation Wind Pressure Humidity
    00:00 +24°C° 0 mm 1 mps 759 mmHg 76%
    01:00 +23°C° 0 mm 1 mps 759 mmHg 78%
    02:00 +23°C° 0 mm 1 mps 759 mmHg 79%
    03:00 +23°C° 0 mm 1 mps 759 mmHg 80%
    04:00 +23°C° 0 mm 1 mps 759 mmHg 80%
    05:00 +23°C° 0 mm 1 mps 759 mmHg 81%
    06:00 +23°C° 0 mm 1 mps 759 mmHg 82%
    07:00 +24°C° 0 mm 1 mps 759 mmHg 83%
    08:00 +25°C° 0 mm 1 mps 760 mmHg 76%
    09:00 +27°C° 0 mm 2 mps 760 mmHg 70%
    10:00 +29°C° 0 mm 2 mps 760 mmHg 63%
    11:00 +30°C° 0 mm 1 mps 760 mmHg 59%
    12:00 +31°C° 0 mm 1 mps 760 mmHg 54%
    13:00 +32°C° 0 mm 1 mps 759 mmHg 49%
    14:00 +32°C° 0 mm 1 mps 759 mmHg 49%
    15:00 +32°C° 0 mm 1 mps 759 mmHg 49%
    16:00 +31°C° 0 mm 1 mps 759 mmHg 49%
    17:00 +30°C° 0 mm 1 mps 759 mmHg 56%
    18:00 +28°C° 0 mm 1 mps 759 mmHg 63%
    19:00 +27°C° 0 mm 2 mps 759 mmHg 69%
    20:00 +26°C° 0 mm 2 mps 759 mmHg 70%
    21:00 +25°C° 0 mm 2 mps 759 mmHg 71%
    22:00 +25°C° 0 mm 2 mps 759 mmHg 72%
    23:00 +24°C° 0 mm 2 mps 759 mmHg 73%

    29 August, Thursday

    Time Temperature Precipitation Wind Pressure Humidity
    00:00 +24°C° 0 mm 2 mps 759 mmHg 73%
    01:00 +24°C° 0 mm 2 mps 759 mmHg 73%
    02:00 +23°C° 0.2 mm 2 mps 759 mmHg 75%
    03:00 +23°C° 0.2 mm 2 mps 760 mmHg 76%
    04:00 +22°C° 0.2 mm 1 mps 760 mmHg 77%
    05:00 +23°C° 0.2 mm 1 mps 760 mmHg 79%
    06:00 +23°C° 0.2 mm 1 mps 760 mmHg 80%
    07:00 +23°C° 0.2 mm 1 mps 760 mmHg 81%
    08:00 +24°C° 0 mm 1 mps 760 mmHg 77%
    09:00 +25°C° 0 mm 2 mps 760 mmHg 73%
    10:00 +26°C° 0 mm 2 mps 760 mmHg 68%
    11:00 +27°C° 0 mm 2 mps 760 mmHg 65%
    12:00 +28°C° 0 mm 2 mps 761 mmHg 62%
    13:00 +29°C° 0 mm 3 mps 761 mmHg 59%
    14:00 +28°C° 0 mm 3 mps 761 mmHg 61%
    15:00 +28°C° 0 mm 3 mps 760 mmHg 62%
    16:00 +28°C° 0 mm 3 mps 760 mmHg 64%
    17:00 +26°C° 0.1 mm 3 mps 761 mmHg 70%
    18:00 +24°C° 0.1 mm 3 mps 761 mmHg 76%
    19:00 +21°C° 0.1 mm 3 mps 761 mmHg 83%
    20:00 +20°C° 0.2 mm 3 mps 761 mmHg 85%
    21:00 +19°C° 0.2 mm 3 mps 761 mmHg 87%
    22:00 +18°C° 0.2 mm 2 mps 761 mmHg 89%
    23:00 +18°C° 0 mm 2 mps 761 mmHg 88%
    Show more